{"data":{"norad_id":63931,"epoch":"2026-09-20T18:36:15.457824Z","epoch_age_seconds":123316,"freshness":"FRESH","line1":"1 63931U 25098F   26263.77517891  .00012737  00000+0  44658-3 0  9999","line2":"2 63931  69.9996 140.2180 0002594 266.4609  93.6270 15.29594938 75858","mean_motion":15.29594938,"eccentricity":0.0002594,"inclination_deg":69.9996,"raan_deg":140.218,"arg_perigee_deg":266.4609,"mean_anomaly_deg":93.627,"bstar":0.00044658,"rev_number":7585,"period_min":94.142570966066,"perigee_km":475.24404267987,"apogee_km":478.80049930966,"semimajor_km":6855.1592709948,"source":"CELESTRAK","updated_at":"2026-09-21T09:00:35.149777Z"}}